Tracking 20712 objects as of 29-May-2020
HD Live streaming from Space Station
objects crossing your sky now

FENGYUN 1C DEB

Track FENGYUN 1C DEB now!
10-day predictions


NORAD ID: 31937
Int'l Code: 1999-025CMN
Perigee: 556.4 km
Apogee: 881.6 km
Inclination: 99.3 °
Period: 99.0 minutes
Semi major axis: 7089 km
RCS: 0.0094 m2 (small)
Launch date: May 10, 1999
Source: People's Republic of China (PRC)
Launch site: Taiyaun Space Center, China (TSC)

Note: This is SATELLITE DEBRIS
aabbcc
Your satellite tracking list
Your tracking list is empty




NASA's NSSDC Master Catalog

Two Line Element Set (TLE):
1 31937U 99025CMN 20143.70253841  .00000216  00000-0  48562-4 0  9996
2 31937  99.3133 317.7628 0229356 330.1863  28.6423 14.54232303683029
Source of the keplerian elements: AFSPC